TimeEDT,TemperatureF,Dew PointF,Humidity,Sea Level PressureIn,VisibilityMPH,Wind Direction,Wind SpeedMPH,Gust SpeedMPH,PrecipitationIn,Events,Conditions,WindDirDegrees,DateUTC
12:58 AM,59.2,48.0,66,30.11,10.0,NE,1.2,-,N/A,,Clear,50,2013-09-27 04:58:00
1:58 AM,57.9,48.2,70,30.11,10.0,Calm,Calm,-,N/A,,Clear,0,2013-09-27 05:58:00
2:58 AM,50.9,47.7,89,30.12,10.0,Calm,Calm,-,N/A,,Clear,0,2013-09-27 06:58:00
3:48 AM,51.8,48.2,88,30.12,3.0,Calm,Calm,-,N/A,,Haze,0,2013-09-27 07:48:00
3:58 AM,52.5,47.7,84,30.12,2.5,West,2.3,-,N/A,,Clear,260,2013-09-27 07:58:00
4:08 AM,50.0,46.4,87,30.12,10.0,NNW,3.5,-,N/A,,Clear,340,2013-09-27 08:08:00
4:18 AM,50.0,46.4,87,30.12,7.0,Calm,Calm,-,N/A,Fog,Patches of Fog,0,2013-09-27 08:18:00
4:28 AM,50.0,46.4,87,30.13,7.0,NNE,1.2,-,N/A,Fog,Patches of Fog,30,2013-09-27 08:28:00
4:58 AM,49.5,47.8,94,30.13,7.0,Calm,Calm,-,N/A,Fog,Patches of Fog,0,2013-09-27 08:58:00
5:18 AM,50.0,48.2,94,30.13,7.0,Calm,Calm,-,N/A,Fog,Patches of Fog,0,2013-09-27 09:18:00
5:38 AM,50.0,48.2,94,30.14,6.0,Calm,Calm,-,N/A,,Clear,0,2013-09-27 09:38:00
5:58 AM,48.2,46.4,93,30.14,7.0,Calm,Calm,-,N/A,Fog,Patches of Fog,0,2013-09-27 09:58:00
6:58 AM,48.7,45.7,89,30.16,10.0,Calm,Calm,-,N/A,,Clear,0,2013-09-27 10:58:00
7:58 AM,48.6,46.6,93,30.18,7.0,Calm,Calm,-,N/A,Fog,Patches of Fog,0,2013-09-27 11:58:00
8:58 AM,53.1,49.1,86,30.19,10.0,NNE,1.2,-,N/A,,Clear,30,2013-09-27 12:58:00
9:58 AM,58.1,50.4,75,30.21,10.0,NE,3.5,-,N/A,,Clear,40,2013-09-27 13:58:00
10:58 AM,64.0,52.7,67,30.21,10.0,Variable,2.3,-,N/A,,Clear,0,2013-09-27 14:58:00
11:01 AM,66.2,53.6,64,30.20,10.0,Variable,2.3,-,N/A,Rain,Light Rain,0,2013-09-27 15:01:00
11:28 AM,68.0,53.6,60,30.20,10.0,Calm,Calm,-,N/A,,Clear,0,2013-09-27 15:28:00
11:37 AM,68.0,53.6,60,30.20,10.0,Variable,2.3,-,N/A,,Light Drizzle,0,2013-09-27 15:37:00
11:44 AM,69.8,53.6,56,30.20,10.0,East,1.2,-,N/A,,Clear,90,2013-09-27 15:44:00
11:46 AM,69.8,53.6,56,30.20,10.0,Calm,Calm,-,N/A,,Light Drizzle,0,2013-09-27 15:46:00
11:58 AM,69.8,52.5,54,30.20,10.0,Variable,1.2,-,0.00,Rain,Light Rain,0,2013-09-27 15:58:00
12:12 PM,69.8,53.6,56,30.19,10.0,Calm,Calm,-,N/A,,Clear,0,2013-09-27 16:12:00
12:29 PM,71.6,53.6,53,30.19,10.0,Calm,Calm,-,N/A,,Light Drizzle,0,2013-09-27 16:29:00
12:47 PM,73.4,51.8,47,30.18,10.0,Calm,Calm,-,N/A,,Clear,0,2013-09-27 16:47:00
12:53 PM,73.4,50.0,44,30.18,10.0,North,5.8,-,N/A,,Light Drizzle,10,2013-09-27 16:53:00
12:58 PM,73.2,50.4,44,30.18,10.0,NNE,5.8,-,N/A,,Partly Cloudy,20,2013-09-27 16:58:00
1:58 PM,75.2,48.2,38,30.16,10.0,Variable,2.3,-,N/A,,Partly Cloudy,0,2013-09-27 17:58:00
2:58 PM,77.5,44.6,31,30.14,10.0,North,2.3,-,N/A,,Partly Cloudy,10,2013-09-27 18:58:00
3:58 PM,78.8,43.2,28,30.13,10.0,Variable,1.2,-,N/A,,Partly Cloudy,0,2013-09-27 19:58:00
4:58 PM,79.3,44.2,29,30.12,10.0,East,2.3,-,N/A,,Partly Cloudy,90,2013-09-27 20:58:00
5:58 PM,78.4,42.6,28,30.12,10.0,NE,1.2,-,N/A,,Partly Cloudy,50,2013-09-27 21:58:00
6:58 PM,76.1,47.8,37,30.13,10.0,Calm,Calm,-,N/A,,Clear,0,2013-09-27 22:58:00
7:58 PM,64.8,54.1,68,30.13,10.0,Calm,Calm,-,N/A,,Clear,0,2013-09-27 23:58:00
8:58 PM,64.0,54.3,71,30.14,10.0,Calm,Calm,-,N/A,,Clear,0,2013-09-28 00:58:00
9:58 PM,61.7,55.2,79,30.15,10.0,Calm,Calm,-,N/A,,Clear,0,2013-09-28 01:58:00
10:58 PM,59.0,52.5,79,30.16,10.0,Calm,Calm,-,N/A,,Clear,0,2013-09-28 02:58:00
11:58 PM,56.7,51.8,84,30.15,10.0,Variable,1.2,-,N/A,,Clear,0,2013-09-28 03:58:00